Location: Newark
(25.4800°N, 85.7200°E)
Time: 08:24:53
(UTC+00:00)

Explorer 11/Cluster Stage 4 - Pass Details

Date: 21 August 2019
Orbit: 467 x 1260 km, 28.8° (Epoch: 15 September)

Event Time Altitude Azimuth Distance (km) Brightness Sun altitude
Rises 02:59:02 0° 217° (SW) 3,958 9.9 40.8°
Reaches altitude 10° 03:02:07 10° 207° (SSW) 3,087 9.6 41.5°
Maximum altitude 03:08:47 30° 149° (SSE) 2,058 9.6 43.0°
Drops below altitude 10° 03:15:42 10° 92° (E) 3,223 10.8 44.6°
Sets 03:18:59 0° 82° (E) 4,158 11.0 45.3°
